User: anonymous   Login
Location: Wayah Bald
(35.1806°N, 83.5603°W)
Time: 21:03:47
(UTC-04:00)
Language:

Meteor 1-27 Rocket - Orbit

View from above orbital plane
View from above orbital plane
View from above satellite
View from above satellite

Ground track
Ground track

The orbit data is extracted from the following two-line orbital elements,

1 09904U 77024B   15211.22140459  .00000157  00000-0  85441-4 0  9998
2 09904 081.2608 074.5901 0054871 105.3029 255.4214 14.06795909966071
Epoch (UTC): 30 July 2015 05:18:49
Eccentricity: 0.0054871
inclination: 81.2608°
perigee height: 830 km
apogee height: 910 km
right ascension of ascending node: 74.5901°
argument of perigee: 105.3029°
revolutions per day: 14.06795909
mean anomaly at epoch: 255.4214°
orbit number at epoch: 96607

The dashed part of the orbit path shows where the satellite is in the earth's shadow,  

DLR